Location: Crescent
(42.8242°N, 73.7329°W)
Time: 02:49:09
(UTC+00:00)

Transit 4A - Pass Details

Date: 21 February 2026
Orbit: 863 x 978 km, 66.8° (Epoch: 13 March)

Event Time Altitude Azimuth Distance (km) Brightness Sun altitude
Rises 16:45:25 0° 328° (NNW) 3,615 10.5 36.5°
Reaches altitude 10° 16:47:56 10° 328° (NNW) 2,682 10.0 36.6°
Maximum altitude 16:54:14 84° 242° (WSW) 977 8.8 36.7°
Drops below altitude 10° 17:00:36 10° 154° (SSE) 2,715 11.4 36.8°
Sets 17:03:10 0° 154° (SSE) 3,662 11.8 36.8°
